www.pogodaiklimat.ru

Погода и климат >> Архив погоды >> Россия >> Свердловская область >> Екатеринбург


АРХИВ ПОГОДЫ в Екатеринбурге

Время (UTC), дата Ветер
(напр.,м/с)
 
Видим.   Явления Облачность Т
(С)
Тd
(С)
f
(%)
Тe
(С)
Тes
(С)
Комфортность P
(гПа)
Po
(гПа)
Тmin
(С)
Tmax
(С)
R
(мм)
S
(см)
21 20.03 ЮВ 4 10 км ясно -8.2 -15.6 55 -15 -15 прохладно 1031.4 994.9
00 21.03 ЮВ 3 10 км ясно -10.3 -16.3 61 -16 -16 холодно 1031.6 994.8
03 21.03 ЮВ 3 20 км ясно -11.1 -16.1 67 -17 -17 очень
холодно
1032.3 995.3 -11.6 32
06 21.03 ЮВ 3 20 км 3/0
[Ci fib]
-3.3 -14.9 40 -8 -3 по сезону 1031.9 996.0
09 21.03 ЮВ 4 50 км 3/0
[Ci fib]
+2.4 -14.1 28 -1 +3 по сезону 1031.1 996.0
12 21.03 ЮВ 4 50 км 4/0
[Ci]
+2.8 -15.0 26 -1 0 по сезону 1031.0 995.9
15 21.03 ЮВ 4 10 км 4/0
[Ci]
-1.8 -13.0 42 -7 -7 по сезону 1032.3 996.6 +3.3
18 21.03 ЮВ 3 10 км ясно -4.3 -13.7 48 -9 -9 по сезону 1032.7 996.6
21 21.03 ЮВ 2 10 км ясно -6.5 -14.4 53 -10 -10 по сезону 1033.2 996.9
00 22.03 ЮВ 2 10 км ясно -8.2 -15.1 58 -12 -12 прохладно 1033.7 997.1
03 22.03 ЮВ 2 20 км 3/0
[Ci fib]
-9.1 -14.2 66 -13 -13 холодно 1034.3 997.5 -9.9 32
06 22.03 Ю 2 10 км 3/0
[Ci fib]
-1.5 -14.7 36 -4 +1 по сезону 1033.2 997.5
09 22.03 Ю 3 50 км 3/0
[Ci fib]
+5.7 -15.2 21 +4 +9 тепло 1031.3 996.6
12 22.03 ЮВ 3
{10}
50 км 3/0
[Ci fib]
+4.6 -14.4 24 +2 +4 по сезону 1031.0 996.2
15 22.03 ЮВ 4 10 км 3/0
[Ci fib]
+0.4 -13.1 36 -4 -4 по сезону 1031.6 996.2 +5.7
18 22.03 ЮВ 3 10 км ясно -2.6 -12.6 46 -7 -7 по сезону 1031.7 995.9
21 22.03 ЮВ 3 10 км ясно -4.6 -12.2 55 -10 -10 по сезону 1031.4 995.3
00 23.03 ЮВ 1 10 км ясно -7.1 -12.0 68 -9 -9 по сезону 1031.2 994.9
03 23.03 ЮВ 2 10 км 1/0
[Ci fib]
-8.1 -12.3 72 -12 -12 прохладно 1030.6 994.1 -8.4 29
06 23.03 ЮВ 4 50 км ясно -1.3 -12.0 44 -6 -2 по сезону 1028.4 992.8
09 23.03 ЮВ 5 50 км ясно +3.3 -10.9 34 -1 +3 по сезону 1025.2 990.3
12 23.03 ЮВ 4 50 км н/о +4.6 -11.5 30 +1 +1 по сезону 1023.2 988.6
15 23.03 ЮВ 4 10 км 6/0
[Ac trans Cc]
+1.1 -8.8 48 -3 -3 по сезону 1022.2 987.2 +4.8
18 23.03 ЮВ 2 10 км 8/4
[Sc Ac trans]
-1.2 -7.2 64 -5 -5 по сезону 1021.1 985.9
21 23.03 ЮВ 1 50 км 10/0
[Ac trans]
-2.5 -7.1 71 -4 -4 по сезону 1019.2 983.9
00 24.03 Ю 1 10 км 10/0
[Ac As]
-1.1 -6.7 66 -3 -3 по сезону 1017.3 982.2
03 24.03 З 4 20 км 10/0
[Ac As]
+0.3 -3.6 75 -5 -5 по сезону 1016.7 981.8 -2.5 27
06 24.03 З 3 20 км 10/10 600 м
[Cb calv]
+0.7 -3.2 75 -4 -4 по сезону 1016.2 981.4
09 24.03 З 3 50 км слабый ливневой снег 10/10 600 м
[Cb cap]
+0.5 -1.8 85 -4 -4 по сезону 1015.8 981.0
12 24.03 СЗ 4
{10}
50 км в посл. час ливневой снег 10/10 600 м
[Sc diur, vesp]
+0.6 -3.5 74 -4 -4 прохладно 1015.6 980.8
15 24.03 З 3 10 км {ливн. осадки} 10/10 600 м
[Sc diur, vesp]
+0.8 -5.2 64 -3 -3 по сезону 1015.9 981.1 +1.3 0.4
18 24.03 З 2 10 км ясно -1.3 -5.1 75 -5 -5 по сезону 1016.8 981.7
21 24.03 З 3 10 км ясно -2.0 -5.0 80 -7 -7 по сезону 1016.6 981.4
00 25.03 З 3 10 км 10/0
[Ci fib]
-1.7 -4.2 83 -7 -7 по сезону 1016.6 981.5
03 25.03 З 3 20 км 9/9 1000 м
[Sc]
-0.4 -3.9 77 -5 -5 по сезону 1016.3 981.3 -2.4 25
06 25.03 З 3 20 км 9/9 1000 м
[Sc]
+1.6 -5.0 61 -2 -2 по сезону 1015.5 980.8
09 25.03 Ю 2 20 км 10/3 1000 м
[Sc Ac As]
+3.2 -5.3 54 +1 +2 по сезону 1014.1 979.6
12 25.03 ЮВ 3 20 км 10/0
[Ac As]
+3.7 -4.7 54 +1 +1 по сезону 1011.8 977.5
15 25.03 Ю 4
{10}
10 км {ливн. осадки} 10/0
[Ac As]
+2.1 -6.0 55 -2 -2 по сезону 1009.8 975.4 +4.3 0.0
18 25.03 ЮВ 4 10 км {ливн. осадки} 10/0
[Ac As]
+0.9 -4.6 67 -4 -4 по сезону 1008.5 974.0
21 25.03 ЮВ 4-10
{10}
10 км 10/0
[Ac As]
-0.6 -3.4 81 -6 -6 по сезону 1008.1 973.4
00 26.03 ЮВ 4
{10}
4000 м слабый снег 10/0
[Ac As]
-0.9 -2.9 86 -7 -7 по сезону 1007.4 972.7
03 26.03 ЮВ 3 4000 м слабый ливневой снег 10/10 600 м
[Cb cap]
-0.8 -2.3 90 -6 -6 по сезону 1006.8 972.1 -1.4 0.5 25
06 26.03 ЮВ 4 20 км {ливн. осадки, снег} 10/6 600 м
[Sc Ac As]
+1.2 -1.2 84 -4 -3 по сезону 1005.7 971.3
09 26.03 ЮВ 3 20 км 10/10 600 м
[Cb cap]
+3.1 -1.1 74 -1 -1 по сезону 1004.4 970.3
12 26.03 -12
{13}
50 км {ливн. осадки} н/о +4.0 -7.1 44 -0 0 по сезону 1004.3 970.3
15 26.03 З 5-10
{13}
10 км 8/6 600 м
[Sc Cc]
+0.2 -8.2 53 -5 -5 прохладно 1005.6 971.1 +4.4 0.5
18 26.03 ЮЗ 5
{11}
10 км {ливн. осадки} 4/4 600 м
[Sc]
-1.9 -8.5 61 -8 -8 прохладно 1005.5 970.7
21 26.03 ЮЗ 3
{10}
10 км 9/6 600 м
[Sc Ac cast]
-2.2 -7.4 67 -7 -7 по сезону 1004.4 969.6
00 27.03 З 4
{10}
10 км 10/0
[Ac und]
-1.5 -6.0 71 -7 -7 по сезону 1003.4 968.7
03 27.03 ЮЗ 4
{10}
20 км слабый ливневой снег 9/9 600 м
[Cb cap]
-1.0 -5.3 73 -6 -6 по сезону 1004.1 969.5 -2.4 23
06 27.03 З 5
{11}
50 км {ливн. осадки} 8/4 600 м
[Cb calv Cs]
+2.3 -6.9 51 -3 -1 по сезону 1004.2 970.0
09 27.03 З 4
{12}
50 км 9/9 600 м
[Cb calv]
+3.4 -8.1 43 -0 0 по сезону 1004.4 970.3
12 27.03 ЮЗ 3
{10}
50 км 8/8 600 м
[Cb calv]
+2.7 -7.8 46 -1 -0 по сезону 1003.9 969.7
15 27.03 ЮЗ 2 10 км 3/3 600 м
[Sc Ci fib]
+0.3 -6.4 61 -3 -3 по сезону 1004.7 970.2 +3.4 0.0

 

Местоположение метеостанции Екатеринбург (Свердловская область, Россия): широта 56.83 долгота 60.63 высота над уровнем моря 281 м.

В архиве по умолчанию представлена погода в Екатеринбурге за последнюю неделю. Архивные данные за месяц целиком и за предыдущие месяцы, начиная с января 2011 года, Вы можете получить, выбрав интересующий диапазон дат из раскрывающегося списка и нажав кнопку "Ввод!".

Внимание! Время в таблицах - всемирное. Для получения местного времени необходимо прибавить поправку, которая в Екатеринбурге равна 5 ч.

Смотрите также архив погоды в соседних городах и на ближайших метеорологических станциях:

Погода в Верхнем Дуброво (Свердловская область, Россия) (29 км)
Погода в Сысерти (Свердловская область, Россия) (38 км)
Погода в Ревде (Свердловская область, Россия) (40 км)
Погода в Невьянске (Свердловская область, Россия) (78 км)
Погода в Верхнем Уфалее (Челябинская область, Россия) (86 км)
Погода в Каменск-Уральском (Свердловская область, Россия) (88 км)
Погода в Бисерти (Свердловская область, Россия) (95 км)
Погода в Артемовском (Свердловская область, Россия) (98 км)
Погода в Михайловске (Свердловская область, Россия) (105 км)
Погода в Нязепетровске (Челябинская область, Россия) (108 км)

Пояснения к столбцам:

Ветер - указаны скорость ветра в м/с - средняя за 10 мин, порывы в срок и между сроками (в фигурных скобках) и направление, откуда дует ветер: С - северный, СВ - северо-восточный, В - восточный, ЮВ - юго-восточный, Ю - южный, ЮЗ - юго-западный, З - западный, СЗ - северо-западный.
Видимость - горизонтальная дальность видимости в метрах или километрах. При видимости от 1 до 10 км при отсутствии осадков обычно наблюдается дымка, при ухудшении видимости до 1 км и менее - туман. В сухую погоду видимость может ухудшаться дымом, пылью или мглою.
Явления - указаны атмосферные явления, наблюдавшиеся в срок или в последний час перед сроком; фигурными скобками обозначены явления, наблюдавшиеся между сроками (за 1-3 часа до срока); квадратными скобками обозначены град или гололедные отложения с указанием их диаметра в мм.
Облачность - указаны через наклонную черту общая и нижняя облачность в баллах и высота нижней границы облаков в метрах; квадратными скобками обозначены формы облаков: Ci - перистые, Cs - перисто-слоистые, Cc - перисто-кучевые, Ac - высококучевые, As - высокослоистые, Sc - слоисто-кучевые, Ns - слоисто-дождевые, Cu - кучевые, Cb - кучево-дождевые. Подробнее классификацию облаков см. в Атласе облаков (PDF).
T - Температура воздуха - температура, измеренная на высоте 2 м над землей.
Td - Температура точки росы - температура, при понижении до которой содержащийся в воздухе водяной пар достигнет насыщения.
f - Относительная влажность воздуха - влажноcть воздуха, измеренная на высоте 2 м над землей.
Te - Эффективная температура - температура, которую ощущает одетый по сезону человек в тени. Характеристика душности погоды. При расчете учитывается влияние влажности воздуха и скорости ветра на теплоощущения человека.
Tes - Эффективная температура на солнце - температура, которую ощущает человек, с поправкой на солнечный нагрев. Характеристика знойности погоды. Зависит от высоты солнца над горизонтом, облачности и скорости ветра. Ночью, в пасмурную погоду, а также при ветре 12 м/с и более поправка равна нулю.
P - Атмосферное давление - приведенное к уровню моря атмосферное давление.
Po - Атмосферное давление - измеренное на уровне метеостанции атмосферное давление.
Tmin - Минимальная температура - минимум температуры воздуха на высоте 2 м над землей.
Tmax - Максимальная температура - максимум температуры воздуха на высоте 2 м над землей.
R - Количество осадков - Количество выпавших осадков, мм. При наведении курсора мыши на число - период времени, за который выпало указанное количество осадков.
S - Снежный покров - Высота снежного покрова, см. При наведении курсора мыши на число - состояние снежного покрова и степень покрытия местности в баллах.